| time (UTC) | temp F | wind direction | speed MPH | gust MPH | rain 1hr in | rain 24hr in | rain mn in | humidity % | barometer mb |
| 20260505171639 | 50 | 30 | 14.0 | 0.0 | 0.00 | 0.00 | 0.00 | 99 | |
| 20260505161739 | 50 | 20 | 13.0 | 0.0 | 0.00 | 0.00 | 0.00 | 99 | |
| 20260505151638 | 52 | 30 | 10.0 | 0.0 | 0.00 | 0.00 | 0.00 | 93 | |
| 20260505121639 | 57 | 360 | 10.0 | 0.0 | 0.00 | 0.00 | 0.00 | 71 | |
| 20260505111638 | 54 | 360 | 12.0 | 0.0 | 0.00 | 0.00 | 0.00 | 81 | |
| 20260505101639 | 61 | 90 | 7.0 | 0.0 | 0.00 | 0.00 | 0.00 | 67 | |
| 20260505091639 | 59 | 100 | 7.0 | 0.0 | 0.00 | 0.00 | 0.00 | 67 | |
| 20260505081639 | 54 | 80 | 8.0 | 0.0 | 0.00 | 0.00 | 0.00 | 81 | |
| 20260505071638 | 50 | 30 | 9.0 | 0.0 | 0.00 | 0.00 | 0.00 | 87 | |
| 20260505061639 | 48 | 20 | 10.0 | 0.0 | 0.00 | 0.00 | 0.00 | 87 | |
| 20260505051639 | 48 | 40 | 8.0 | 0.0 | 0.00 | 0.00 | 0.00 | 87 | |
| 20260505041639 | 50 | 60 | 10.0 | 0.0 | 0.00 | 0.00 | 0.00 | 76 | |
| 20260505031639 | 50 | 50 | 9.0 | 0.0 | 0.00 | 0.00 | 0.00 | 76 | |
| 20260505021639 | 50 | 50 | 10.0 | 0.0 | 0.00 | 0.00 | 0.00 | 76 | |
| 20260505011640 | 50 | 50 | 7.0 | 0.0 | 0.00 | 0.00 | 0.00 | 76 | |
| 20260505001639 | 52 | 90 | 9.0 | 0.0 | 0.00 | 0.00 | 0.00 | 76 | |
| 20260504231639 | 54 | 120 | 13.0 | 0.0 | 0.00 | 0.00 | 0.00 | 71 | |
| 20260504221639 | 54 | 120 | 15.0 | 0.0 | 0.00 | 0.00 | 0.00 | 71 | |
| 20260504211638 | 54 | 110 | 13.0 | 0.0 | 0.00 | 0.00 | 0.00 | 71 | |
| 20260504201637 | 54 | 110 | 12.0 | 0.0 | 0.00 | 0.00 | 0.00 | 71 | |
| 20260504191639 | 54 | 70 | 9.0 | 0.0 | 0.00 | 0.00 | 0.00 | 66 | |
| 20260504181639 | 55 | 40 | 8.0 | 0.0 | 0.00 | 0.00 | 0.00 | 66 |